Regional Weather Roundup
Issued by NWS Huntsville, AL

Home | Current Version | Previous Version | Text Only | Print | Product List | Glossary On
Versions: 1 2 3 4 5 6 7 8 9 10 11 12 13 14 15 16 17 18 19 20 21 22 23 24 25 26 27 28 29 30 31 32 33 34 35 36 37 38 39 40 41 42 43 44 45 46 47 48 49 50
000
ASUS44 KHUN 182210
RWRHUN

WEATHER ROUNDUP FOR THE TENNESSEE VALLEY
NATIONAL WEATHER SERVICE HUNTSVILLE AL
500 PM CDT THU SEP 18 2014

ALZ001>004-182300-
NORTHWEST ALABAMA

CITY           SKY/WX    TMP DP  RH WIND       PRES   REMARKS
COURTLAND HCN    N/A     77 N/A N/A NE5         N/A
RUSSELLVILLE     N/A     77 N/A N/A MISG        N/A
SHOALS AIRPORT LGT RAIN  76  65  68 CALM      29.93F
SHOALS TVA RES   N/A     75 N/A N/A MISG        N/A
$$

ALZ005>007-016-182300-
NORTH CENTRAL ALABAMA

CITY           SKY/WX    TMP DP  RH WIND       PRES   REMARKS
CULLMAN AG STN   N/A     82 N/A N/A N6          N/A
DECATUR AP     PTSUNNY   79  63  57 NE7       29.93F
HUNTSVILLE AP  PTSUNNY   80  63  55 NE5       29.93F
HUN NWS/UAH      N/A     79  60  51 N3          N/A
MERIDIANVILLE  PTSUNNY   79  55  44 CALM      29.94F
VINEMONT AP    FAIR      80  63  55 NE5       29.96S
$$

ALZ008>010-182300-
NORTHEAST ALABAMA

CITY           SKY/WX    TMP DP  RH WIND       PRES   REMARKS
ALBERTVILLE    MOSUNNY   79  68  69 N5        29.94F
FORT PAYNE     MOSUNNY   81  57  44 N5        29.94F
SCOTTSBORO AP  PTSUNNY   81  63  54 CALM      29.95S
SCOTTSBORO HCN   N/A     79 N/A N/A MISG        N/A
VALLEY HEAD      N/A     75 N/A N/A MISG        N/A
$$

TNZ076-096-097-182300-
SOUTHEASTERN MIDDLE TENNESSEE

CITY           SKY/WX    TMP DP  RH WIND       PRES   REMARKS
FAYETTEVILLE   SUNNY     75  57  53 NE5       29.94F
TULLAHOMA      MOSUNNY   75  54  46 NE5       29.98S
WINCHESTER     MOSUNNY   79  57  47 CALM      29.96F
$$

...SURROUNDING SITES...

CITY           SKY/WX    TMP DP  RH WIND       PRES   REMARKS
ATLANTA        PTSUNNY   82  62  50 CALM      29.95F
ANNISTON       MOSUNNY   83  62  49 SE3       29.93F
BIRMINGHAM     MOSUNNY   84  60  44 N6        29.94F
CHATTANOOGA    PTSUNNY   81  54  39 N8        29.96S
CORINTH        FAIR      75  64  69 NE8       29.93S
DALTON         MOSUNNY   79  59  50 CALM      29.95S
GADSDEN        SUNNY     84  57  39 CALM      29.92F
GOLDEN TRNGL   MOSUNNY   84  66  54 S7        29.90R
HALEYVILLE     FAIR      78  67  68 CALM      29.96S
JACKSON TN     PTSUNNY   74  63  68 E8        29.95S
LEWISBURG      PTSUNNY   77  59  53 NE5       29.95F
MEMPHIS        PTSUNNY   81  68  64 NE8       29.92S
MURFREESBORO   FAIR      75  57  53 NE7       29.97S
NASHVILLE      CLOUDY    75  54  47 E6        29.98F
OXFORD MS      FAIR      79  68  69 E3        29.92R
ROME           MOSUNNY   83  57  41 NE6       29.93F
SAVANNAH       PTSUNNY   73  70  88 NE5       29.95R
TUPELO         SUNNY     85  66  53 VRB6      29.90R
TUSCALOOSA     MOSUNNY   87  65  47 N7        29.89S
$$

...GULF COAST WEATHER...

CITY           SKY/WX    TMP DP  RH WIND       PRES   REMARKS
GULFPORT       CLOUDY    85  74  69 VRB3      29.87S HX  92
PASCAGOULA     CLOUDY    84  73  69 SE3       29.88S HX  90
MOBILE         TSTM      71  69  93 VRB3      29.94R FOG
GULF SHORES    CLOUDY    83  71  68 N3        29.88F
PENSACOLA      CLOUDY    84  72  67 SE3       29.87F
DESTIN         CLOUDY    86  73  65 CALM      29.88F HX  93
PANAMA CITY    MOSUNNY   85  77  77 SW8       29.89S HX  94
APPALACHICOLA  PTSUNNY   84  70  62 N12       29.91R
$$




USA.gov is the U.S. government's official web portal to all federal, state and local government web resources and services.